Time,TemperatureF,DewpointF,PressureIn,WindDirection,WindDirectionDegrees,WindSpeedMPH,WindSpeedGustMPH,Humidity,HourlyPrecipIn,Conditions,Clouds,dailyrainin,SoftwareType,DateUTC
2013-01-18 00:00:00,32.0,32.0,30.21,NE,42,3.0,5.0,100,0.00,RA,SKC,0.00,WeatherDisplay:10.37,2013-01-18 05:00:00,
2013-01-18 00:01:00,32.0,32.0,30.21,NNE,22,3.5,3.5,100,0.00,RA,SKC,0.00,WeatherDisplay:10.37,2013-01-18 05:01:00,
2013-01-18 00:02:00,32.0,32.0,30.21,NNE,22,3.5,3.5,100,0.00,RA,SKC,0.00,WeatherDisplay:10.37,2013-01-18 05:02:00,
2013-01-18 00:03:00,32.0,32.0,30.21,NNE,22,3.5,3.5,100,0.00,RA,SKC,0.00,WeatherDisplay:10.37,2013-01-18 05:03:00,
2013-01-18 00:08:00,32.0,32.0,30.21,NNE,22,2.3,2.3,100,0.00,RA,SKC,0.00,WeatherDisplay:10.37,2013-01-18 05:08:00,
2013-01-18 00:13:00,32.0,32.0,30.23,NNE,22,2.3,2.3,100,0.00,,SKC,0.00,WeatherDisplay:10.37,2013-01-18 05:13:00,
2013-01-18 00:18:00,32.0,32.0,30.23,NNE,22,3.0,3.0,100,0.00,,SKC,0.00,WeatherDisplay:10.37,2013-01-18 05:18:00,
2013-01-18 00:23:00,32.0,32.0,30.23,NNE,22,3.5,3.5,100,0.00,,SKC,0.00,WeatherDisplay:10.37,2013-01-18 05:23:00,
2013-01-18 00:28:00,32.0,32.0,30.23,NNE,22,3.5,3.5,100,0.00,,SKC,0.00,WeatherDisplay:10.37,2013-01-18 05:28:00,
2013-01-18 00:33:00,32.0,32.0,30.24,NNE,22,2.3,2.3,100,0.00,,SKC,0.00,WeatherDisplay:10.37,2013-01-18 05:33:00,
2013-01-18 00:38:00,32.0,32.0,30.24,NNE,22,3.5,3.5,100,0.00,,SKC,0.00,WeatherDisplay:10.37,2013-01-18 05:38:00,
2013-01-18 00:43:00,32.0,32.0,30.25,NNE,22,3.5,3.5,100,0.00,,SKC,0.00,WeatherDisplay:10.37,2013-01-18 05:43:00,
2013-01-18 00:48:00,32.0,32.0,30.25,NNE,22,3.5,3.5,100,0.00,,SKC,0.00,WeatherDisplay:10.37,2013-01-18 05:48:00,
2013-01-18 00:53:00,32.0,32.0,30.23,NNE,22,2.3,2.3,100,0.00,,SKC,0.00,WeatherDisplay:10.37,2013-01-18 05:53:00,
2013-01-18 00:58:00,32.0,32.0,30.23,NNE,22,0.0,0.0,100,0.00,,SKC,0.00,WeatherDisplay:10.37,2013-01-18 05:58:00,
2013-01-18 01:03:00,32.0,32.0,30.24,NNE,22,0.0,0.0,100,0.00,,SKC,0.00,WeatherDisplay:10.37,2013-01-18 06:03:00,
2013-01-18 01:08:00,32.0,32.0,30.24,NNE,22,2.3,2.3,100,0.00,,SKC,0.00,WeatherDisplay:10.37,2013-01-18 06:08:00,
2013-01-18 01:13:00,31.0,31.0,30.23,NNE,22,1.1,1.1,100,0.00,,SKC,0.00,WeatherDisplay:10.37,2013-01-18 06:13:00,
2013-01-18 01:18:00,32.0,32.0,30.23,NNE,22,2.3,2.3,100,0.00,,SKC,0.00,WeatherDisplay:10.37,2013-01-18 06:18:00,
2013-01-18 01:23:00,32.0,32.0,30.25,NNE,22,3.5,3.5,100,0.00,,SKC,0.00,WeatherDisplay:10.37,2013-01-18 06:23:00,
2013-01-18 01:28:00,32.0,32.0,30.25,North,360,3.5,3.5,100,0.00,,SKC,0.00,WeatherDisplay:10.37,2013-01-18 06:28:00,
2013-01-18 01:33:00,32.0,32.0,30.25,North,360,1.1,1.1,100,0.00,,SKC,0.00,WeatherDisplay:10.37,2013-01-18 06:33:00,
2013-01-18 01:38:00,32.0,32.0,30.25,West,270,5.8,5.8,100,0.00,,SKC,0.00,WeatherDisplay:10.37,2013-01-18 06:38:00,
2013-01-18 01:43:00,32.0,32.0,30.26,WNW,292,5.0,5.0,100,0.00,,SKC,0.00,WeatherDisplay:10.37,2013-01-18 06:43:00,
2013-01-18 01:48:00,32.0,32.0,30.26,WNW,292,5.8,5.8,100,0.00,,SKC,0.00,WeatherDisplay:10.37,2013-01-18 06:48:00,
2013-01-18 01:53:00,32.0,32.0,30.27,WNW,292,8.1,8.1,100,0.00,,SKC,0.00,WeatherDisplay:10.37,2013-01-18 06:53:00,
2013-01-18 01:58:00,32.0,32.0,30.27,West,270,8.1,8.1,100,0.00,CLR,SKC,0.00,WeatherDisplay:10.37,2013-01-18 06:58:00,
2013-01-18 02:03:00,32.0,32.0,30.28,West,270,8.1,8.1,100,0.00,CLR,SKC,0.00,WeatherDisplay:10.37,2013-01-18 07:03:00,
2013-01-18 02:08:00,32.0,32.0,30.28,West,270,6.9,6.9,100,0.00,CLR,SKC,0.00,WeatherDisplay:10.37,2013-01-18 07:08:00,
2013-01-18 02:13:00,32.0,32.0,30.29,West,270,6.9,6.9,100,0.00,CLR,SKC,0.00,WeatherDisplay:10.37,2013-01-18 07:13:00,
2013-01-18 02:18:00,32.0,32.0,30.29,West,270,9.2,9.2,100,0.00,,SKC,0.00,WeatherDisplay:10.37,2013-01-18 07:18:00,
2013-01-18 02:23:00,32.0,32.0,30.29,West,270,5.8,5.8,100,0.00,CLR,SKC,0.00,WeatherDisplay:10.37,2013-01-18 07:23:00,
2013-01-18 02:28:00,32.0,32.0,30.29,WNW,292,8.1,8.1,100,0.00,,SKC,0.00,WeatherDisplay:10.37,2013-01-18 07:28:00,
2013-01-18 02:33:00,32.0,32.0,30.28,WNW,292,5.8,5.8,100,0.01,RA,SKC,0.01,WeatherDisplay:10.37,2013-01-18 07:33:00,
2013-01-18 02:38:00,32.0,32.0,30.28,NW,315,4.6,4.6,100,0.01,RA,SKC,0.01,WeatherDisplay:10.37,2013-01-18 07:38:00,
2013-01-18 02:43:00,32.0,32.0,30.27,NW,315,3.5,3.5,100,0.01,CLR,SKC,0.01,WeatherDisplay:10.37,2013-01-18 07:43:00,
2013-01-18 02:48:00,32.0,32.0,30.27,WSW,247,3.5,3.5,100,0.01,,SKC,0.01,WeatherDisplay:10.37,2013-01-18 07:48:00,
2013-01-18 02:53:00,32.0,32.0,30.29,West,270,7.0,7.0,100,0.01,,SKC,0.01,WeatherDisplay:10.37,2013-01-18 07:53:00,
2013-01-18 02:58:00,32.0,32.0,30.29,West,270,6.9,6.9,100,0.01,,SKC,0.01,WeatherDisplay:10.37,2013-01-18 07:58:00,
2013-01-18 03:03:00,32.0,32.0,30.29,West,270,7.0,7.0,100,0.01,,SKC,0.01,WeatherDisplay:10.37,2013-01-18 08:03:00,
2013-01-18 03:08:00,32.0,32.0,30.29,West,270,5.8,5.8,100,0.01,,SKC,0.01,WeatherDisplay:10.37,2013-01-18 08:08:00,
2013-01-18 03:13:00,32.0,32.0,30.30,West,270,4.6,4.6,100,0.02,RA,SKC,0.02,WeatherDisplay:10.37,2013-01-18 08:13:00,
2013-01-18 03:18:00,32.0,32.0,30.30,West,270,4.6,4.6,100,0.02,RA,SKC,0.02,WeatherDisplay:10.37,2013-01-18 08:18:00,
2013-01-18 03:23:00,32.0,32.0,30.30,West,270,5.8,5.8,100,0.02,CLR,SKC,0.02,WeatherDisplay:10.37,2013-01-18 08:23:00,
2013-01-18 03:28:00,32.0,32.0,30.30,West,270,6.0,6.0,100,0.02,,SKC,0.02,WeatherDisplay:10.37,2013-01-18 08:28:00,
2013-01-18 03:33:00,32.0,32.0,30.30,West,270,4.6,4.6,100,0.01,,SKC,0.02,WeatherDisplay:10.37,2013-01-18 08:33:00,
2013-01-18 03:38:00,32.0,32.0,30.30,West,270,4.0,4.0,100,0.01,,SKC,0.02,WeatherDisplay:10.37,2013-01-18 08:38:00,
2013-01-18 03:43:00,32.0,32.0,30.30,West,270,6.9,6.9,100,0.01,,SKC,0.02,WeatherDisplay:10.37,2013-01-18 08:43:00,
2013-01-18 03:48:00,32.0,32.0,30.30,West,270,5.8,5.8,100,0.01,,SKC,0.02,WeatherDisplay:10.37,2013-01-18 08:48:00,
2013-01-18 03:53:00,32.0,32.0,30.30,West,270,4.6,4.6,100,0.01,,SKC,0.02,WeatherDisplay:10.37,2013-01-18 08:53:00,
2013-01-18 03:58:00,31.0,31.0,30.30,West,270,4.6,4.6,100,0.01,,SKC,0.02,WeatherDisplay:10.37,2013-01-18 08:58:00,
2013-01-18 04:03:00,31.0,31.0,30.31,West,270,4.6,4.7,100,0.01,,SKC,0.02,WeatherDisplay:10.37,2013-01-18 09:03:00,
2013-01-18 04:08:00,31.0,31.0,30.31,West,270,5.0,5.0,100,0.01,,SKC,0.02,WeatherDisplay:10.37,2013-01-18 09:08:00,
2013-01-18 04:13:00,31.0,31.0,30.31,West,270,5.8,5.8,100,0.00,,SKC,0.02,WeatherDisplay:10.37,2013-01-18 09:13:00,
2013-01-18 04:18:00,31.0,31.0,30.31,West,270,6.0,6.0,100,0.00,,SKC,0.02,WeatherDisplay:10.37,2013-01-18 09:18:00,
2013-01-18 04:23:00,31.0,31.0,30.31,West,270,5.8,5.8,100,0.01,RA,SKC,0.03,WeatherDisplay:10.37,2013-01-18 09:23:00,
2013-01-18 04:28:00,31.0,31.0,30.31,West,270,6.9,6.9,100,0.01,RA,SKC,0.03,WeatherDisplay:10.37,2013-01-18 09:28:00,
2013-01-18 04:33:00,31.0,31.0,30.32,West,270,6.9,6.9,100,0.01,,SKC,0.03,WeatherDisplay:10.37,2013-01-18 09:33:00,
2013-01-18 04:38:00,31.0,31.0,30.32,West,270,5.8,5.8,100,0.01,CLR,SKC,0.03,WeatherDisplay:10.37,2013-01-18 09:38:00,
2013-01-18 04:43:00,31.0,31.0,30.33,West,270,4.6,4.6,100,0.01,,SKC,0.03,WeatherDisplay:10.37,2013-01-18 09:43:00,
2013-01-18 04:48:00,31.0,31.0,30.33,West,270,6.9,6.9,100,0.01,,SKC,0.03,WeatherDisplay:10.37,2013-01-18 09:48:00,
2013-01-18 04:53:00,31.0,31.0,30.33,West,270,7.0,7.0,100,0.01,,SKC,0.03,WeatherDisplay:10.37,2013-01-18 09:53:00,
2013-01-18 04:58:00,31.0,31.0,30.33,West,270,5.0,5.0,100,0.01,,SKC,0.03,WeatherDisplay:10.37,2013-01-18 09:58:00,
2013-01-18 05:03:00,31.0,31.0,30.34,West,270,4.6,4.6,100,0.01,,SKC,0.03,WeatherDisplay:10.37,2013-01-18 10:03:00,
2013-01-18 05:08:00,31.0,31.0,30.34,West,270,4.6,4.6,100,0.01,,SKC,0.03,WeatherDisplay:10.37,2013-01-18 10:08:00,
2013-01-18 05:13:00,31.0,31.0,30.34,West,270,3.5,3.5,100,0.02,RA,SKC,0.04,WeatherDisplay:10.37,2013-01-18 10:13:00,
2013-01-18 05:18:00,31.0,31.0,30.34,West,270,4.0,4.0,100,0.02,RA,SKC,0.04,WeatherDisplay:10.37,2013-01-18 10:18:00,
2013-01-18 05:23:00,31.0,31.0,30.35,West,270,3.5,3.5,100,0.02,,SKC,0.04,WeatherDisplay:10.37,2013-01-18 10:23:00,
2013-01-18 05:28:00,31.0,31.0,30.35,West,270,4.0,4.0,100,0.01,CLR,SKC,0.04,WeatherDisplay:10.37,2013-01-18 10:28:00,
2013-01-18 05:33:00,31.0,31.0,30.35,West,270,4.6,4.6,100,0.01,,SKC,0.04,WeatherDisplay:10.37,2013-01-18 10:33:00,
2013-01-18 05:38:00,31.0,31.0,30.35,West,270,3.5,3.8,100,0.01,,SKC,0.04,WeatherDisplay:10.37,2013-01-18 10:38:00,
2013-01-18 05:43:00,30.0,30.0,30.36,West,270,4.0,4.0,100,0.01,,SKC,0.04,WeatherDisplay:10.37,2013-01-18 10:43:00,
2013-01-18 05:48:00,30.0,30.0,30.36,West,270,3.5,3.5,100,0.01,,SKC,0.04,WeatherDisplay:10.37,2013-01-18 10:48:00,
2013-01-18 05:53:00,30.0,30.0,30.36,West,270,4.6,4.6,100,0.01,,SKC,0.04,WeatherDisplay:10.37,2013-01-18 10:53:00,
2013-01-18 05:58:00,30.0,30.0,30.36,West,270,3.5,3.5,100,0.01,,SKC,0.04,WeatherDisplay:10.37,2013-01-18 10:58:00,
2013-01-18 06:03:00,30.0,30.0,30.37,West,270,0.0,0.0,100,0.01,,SKC,0.04,WeatherDisplay:10.37,2013-01-18 11:03:00,
2013-01-18 06:08:00,30.0,30.0,30.37,West,270,3.5,3.5,100,0.01,,SKC,0.04,WeatherDisplay:10.37,2013-01-18 11:08:00,
2013-01-18 06:13:00,30.0,30.0,30.38,West,270,3.5,3.5,100,0.00,,SKC,0.04,WeatherDisplay:10.37,2013-01-18 11:13:00,
2013-01-18 06:18:00,30.0,30.0,30.38,West,270,3.5,3.5,100,0.00,,SKC,0.04,WeatherDisplay:10.37,2013-01-18 11:18:00,
2013-01-18 06:23:00,30.0,30.0,30.39,West,270,3.5,3.5,100,0.00,,SKC,0.04,WeatherDisplay:10.37,2013-01-18 11:23:00,
2013-01-18 06:28:00,30.0,30.0,30.39,West,270,1.0,0.0,100,0.00,,SKC,0.04,WeatherDisplay:10.37,2013-01-18 11:28:00,
2013-01-18 06:33:00,30.0,30.0,30.39,West,270,3.5,3.5,100,0.00,,SKC,0.04,WeatherDisplay:10.37,2013-01-18 11:33:00,
2013-01-18 06:38:00,29.0,29.0,30.39,West,270,2.3,2.3,100,0.00,,SKC,0.04,WeatherDisplay:10.37,2013-01-18 11:38:00,
2013-01-18 06:43:00,29.0,29.0,30.40,West,270,0.0,0.0,100,0.00,,SKC,0.04,WeatherDisplay:10.37,2013-01-18 11:43:00,
2013-01-18 06:48:00,29.0,29.0,30.40,West,270,2.3,2.3,100,0.00,,SKC,0.04,WeatherDisplay:10.37,2013-01-18 11:48:00,
2013-01-18 06:53:00,29.0,29.0,30.40,West,270,3.5,3.5,100,0.00,,SKC,0.04,WeatherDisplay:10.37,2013-01-18 11:53:00,
2013-01-18 06:58:00,29.0,29.0,30.40,West,270,5.0,5.0,100,0.00,,SKC,0.04,WeatherDisplay:10.37,2013-01-18 11:58:00,
2013-01-18 07:03:00,30.0,30.0,30.41,West,270,4.6,4.6,100,0.00,,SKC,0.04,WeatherDisplay:10.37,2013-01-18 12:03:00,
2013-01-18 07:08:00,30.0,30.0,30.41,West,270,6.0,6.0,100,0.00,,SKC,0.04,WeatherDisplay:10.37,2013-01-18 12:08:00,
2013-01-18 07:13:00,30.0,30.0,30.41,West,270,4.6,4.6,100,0.00,,SKC,0.04,WeatherDisplay:10.37,2013-01-18 12:13:00,
2013-01-18 07:18:00,30.0,30.0,30.41,West,270,4.0,4.0,100,0.00,,SKC,0.04,WeatherDisplay:10.37,2013-01-18 12:18:00,
2013-01-18 07:23:00,29.0,29.0,30.42,West,270,6.0,6.0,100,0.00,,SKC,0.04,WeatherDisplay:10.37,2013-01-18 12:23:00,
2013-01-18 07:28:00,30.0,30.0,30.42,West,270,6.0,6.0,100,0.00,,SKC,0.04,WeatherDisplay:10.37,2013-01-18 12:28:00,
2013-01-18 07:33:00,30.0,30.0,30.42,West,270,8.1,8.1,100,0.00,CLR,SKC,0.04,WeatherDisplay:10.37,2013-01-18 12:33:00,
2013-01-18 07:38:00,30.0,30.0,30.42,West,270,10.4,10.4,100,0.00,CLR,SKC,0.04,WeatherDisplay:10.37,2013-01-18 12:38:00,
2013-01-18 07:43:00,30.0,30.0,30.43,West,270,9.2,9.2,100,0.00,CLR,SKC,0.04,WeatherDisplay:10.37,2013-01-18 12:43:00,
2013-01-18 07:48:00,31.0,31.0,30.43,West,270,6.9,6.9,100,0.00,CLR,SKC,0.04,WeatherDisplay:10.37,2013-01-18 12:48:00,
2013-01-18 07:53:00,31.0,31.0,30.44,West,270,9.2,9.2,100,0.00,CLR,SKC,0.04,WeatherDisplay:10.37,2013-01-18 12:53:00,
2013-01-18 07:58:00,32.0,32.0,30.44,WNW,292,9.2,9.2,100,0.00,CLR,SKC,0.04,WeatherDisplay:10.37,2013-01-18 12:58:00,
2013-01-18 08:03:00,32.0,32.0,30.44,WSW,247,11.5,11.5,100,0.00,CLR,SKC,0.04,WeatherDisplay:10.37,2013-01-18 13:03:00,
2013-01-18 08:08:00,32.0,32.0,30.44,West,270,10.4,10.4,100,0.00,CLR,SKC,0.04,WeatherDisplay:10.37,2013-01-18 13:08:00,
2013-01-18 08:13:00,33.0,33.0,30.45,West,270,10.4,10.4,100,0.00,CLR,SKC,0.04,WeatherDisplay:10.37,2013-01-18 13:13:00,
2013-01-18 08:18:00,33.0,33.0,30.45,West,270,8.1,8.1,100,0.00,CLR,SKC,0.04,WeatherDisplay:10.37,2013-01-18 13:18:00,
2013-01-18 08:23:00,33.0,33.0,30.46,West,270,7.0,7.0,100,0.00,CLR,SKC,0.04,WeatherDisplay:10.37,2013-01-18 13:23:00,
2013-01-18 08:28:00,33.0,33.0,30.46,West,270,9.2,9.2,100,0.00,,SKC,0.04,WeatherDisplay:10.37,2013-01-18 13:28:00,
2013-01-18 08:33:00,33.0,33.0,30.45,West,270,9.2,9.2,100,0.00,CLR,SKC,0.04,WeatherDisplay:10.37,2013-01-18 13:33:00,
2013-01-18 08:38:00,34.0,34.0,30.45,West,270,9.2,9.2,100,0.00,CLR,SKC,0.04,WeatherDisplay:10.37,2013-01-18 13:38:00,
2013-01-18 08:43:00,34.0,34.0,30.46,West,270,8.1,8.1,100,0.00,CLR,SKC,0.04,WeatherDisplay:10.37,2013-01-18 13:43:00,
2013-01-18 08:48:00,34.0,34.0,30.46,West,270,5.8,5.8,100,0.00,CLR,SKC,0.04,WeatherDisplay:10.37,2013-01-18 13:48:00,
2013-01-18 08:53:00,34.0,34.0,30.47,WNW,292,5.8,5.8,100,0.00,,SKC,0.04,WeatherDisplay:10.37,2013-01-18 13:53:00,
2013-01-18 08:58:00,34.0,34.0,30.47,West,270,5.8,5.8,100,0.00,,SKC,0.04,WeatherDisplay:10.37,2013-01-18 13:58:00,
2013-01-18 09:03:00,35.0,34.5,30.47,West,270,8.1,8.1,98,0.00,CLR,SKC,0.04,WeatherDisplay:10.37,2013-01-18 14:03:00,
2013-01-18 09:08:00,35.0,34.2,30.47,West,270,7.0,7.0,97,0.00,CLR,SKC,0.04,WeatherDisplay:10.37,2013-01-18 14:08:00,
2013-01-18 09:13:00,35.0,34.2,30.47,West,270,7.0,7.0,97,0.00,CLR,SKC,0.04,WeatherDisplay:10.37,2013-01-18 14:13:00,
2013-01-18 09:18:00,35.0,34.2,30.47,West,270,7.0,7.0,97,0.01,RA,SKC,0.05,WeatherDisplay:10.37,2013-01-18 14:18:00,
2013-01-18 09:23:00,35.0,34.0,30.47,West,270,5.8,5.8,96,0.01,RA,SKC,0.05,WeatherDisplay:10.37,2013-01-18 14:23:00,
2013-01-18 09:28:00,36.0,34.4,30.47,West,270,8.1,8.1,94,0.01,CLR,SKC,0.05,WeatherDisplay:10.37,2013-01-18 14:28:00,
2013-01-18 09:33:00,36.0,34.7,30.47,West,270,6.0,6.0,95,0.01,CLR,SKC,0.05,WeatherDisplay:10.37,2013-01-18 14:33:00,
2013-01-18 09:38:00,36.0,34.2,30.47,West,270,8.1,8.1,93,0.01,CLR,SKC,0.05,WeatherDisplay:10.37,2013-01-18 14:38:00,
2013-01-18 09:43:00,36.0,34.2,30.48,WSW,247,6.0,6.0,93,0.01,CLR,SKC,0.05,WeatherDisplay:10.37,2013-01-18 14:43:00,
2013-01-18 09:48:00,37.0,34.9,30.48,WNW,292,5.8,5.8,92,0.01,CLR,SKC,0.05,WeatherDisplay:10.37,2013-01-18 14:48:00,
2013-01-18 09:53:00,37.0,34.9,30.48,West,270,7.0,7.0,92,0.01,CLR,SKC,0.05,WeatherDisplay:10.37,2013-01-18 14:53:00,
2013-01-18 09:58:00,37.0,34.3,30.48,West,270,8.1,8.1,90,0.01,CLR,SKC,0.05,WeatherDisplay:10.37,2013-01-18 14:58:00,
2013-01-18 10:03:00,37.0,34.6,30.48,West,270,8.1,8.1,91,0.01,CLR,SKC,0.05,WeatherDisplay:10.37,2013-01-18 15:03:00,
2013-01-18 10:08:00,37.0,34.6,30.48,West,270,5.8,5.8,91,0.01,CLR,SKC,0.05,WeatherDisplay:10.37,2013-01-18 15:08:00,
2013-01-18 10:13:00,37.0,34.3,30.49,West,270,5.8,5.8,90,0.01,CLR,SKC,0.05,WeatherDisplay:10.37,2013-01-18 15:13:00,
2013-01-18 10:18:00,38.0,35.3,30.49,WNW,292,5.8,5.8,90,0.00,CLR,SKC,0.05,WeatherDisplay:10.37,2013-01-18 15:18:00,
2013-01-18 10:23:00,38.0,35.0,30.49,WNW,292,6.9,6.9,89,0.01,RA,SKC,0.06,WeatherDisplay:10.37,2013-01-18 15:23:00,
2013-01-18 10:28:00,38.0,34.5,30.49,West,270,8.1,8.1,87,0.01,RA,SKC,0.06,WeatherDisplay:10.37,2013-01-18 15:28:00,
2013-01-18 10:33:00,38.0,34.5,30.48,West,270,6.9,6.9,87,0.01,,SKC,0.06,WeatherDisplay:10.37,2013-01-18 15:33:00,
2013-01-18 10:38:00,38.0,34.2,30.48,West,270,8.1,8.1,86,0.01,CLR,SKC,0.06,WeatherDisplay:10.37,2013-01-18 15:38:00,
2013-01-18 10:43:00,39.0,34.9,30.48,WNW,292,6.9,6.9,85,0.01,CLR,SKC,0.06,WeatherDisplay:10.37,2013-01-18 15:43:00,
2013-01-18 10:48:00,39.0,34.6,30.48,West,270,8.1,8.1,84,0.01,CLR,SKC,0.06,WeatherDisplay:10.37,2013-01-18 15:48:00,
2013-01-18 10:53:00,39.0,34.3,30.48,West,270,8.1,8.1,83,0.01,CLR,SKC,0.06,WeatherDisplay:10.37,2013-01-18 15:53:00,
2013-01-18 10:58:00,39.0,33.7,30.48,WNW,292,6.9,6.9,81,0.02,RA,SKC,0.07,WeatherDisplay:10.37,2013-01-18 15:58:00,
2013-01-18 11:03:00,39.0,33.4,30.48,West,270,6.9,6.9,80,0.02,RA,SKC,0.07,WeatherDisplay:10.37,2013-01-18 16:03:00,
2013-01-18 11:08:00,40.0,34.3,30.48,WNW,292,6.9,6.9,80,0.03,RA,SKC,0.08,WeatherDisplay:10.37,2013-01-18 16:08:00,
2013-01-18 11:13:00,40.0,34.0,30.48,West,270,7.0,7.0,79,0.03,RA,SKC,0.08,WeatherDisplay:10.37,2013-01-18 16:13:00,
2013-01-18 11:18:00,40.0,34.0,30.48,West,270,5.8,5.8,79,0.03,,SKC,0.08,WeatherDisplay:10.37,2013-01-18 16:18:00,
2013-01-18 11:23:00,40.0,34.6,30.48,NW,315,3.5,3.5,81,0.02,CLR,SKC,0.08,WeatherDisplay:10.37,2013-01-18 16:23:00,
2013-01-18 11:28:00,41.0,34.7,30.48,West,270,5.8,5.8,78,0.02,CLR,SKC,0.08,WeatherDisplay:10.37,2013-01-18 16:28:00,
2013-01-18 11:33:00,40.0,33.0,30.47,West,270,8.1,8.1,76,0.03,RA,SKC,0.09,WeatherDisplay:10.37,2013-01-18 16:33:00,
2013-01-18 11:38:00,40.0,33.7,30.47,WNW,292,5.8,5.8,78,0.03,RA,SKC,0.09,WeatherDisplay:10.37,2013-01-18 16:38:00,
2013-01-18 11:43:00,41.0,33.7,30.48,NNE,22,6.9,6.9,75,0.03,,SKC,0.09,WeatherDisplay:10.37,2013-01-18 16:43:00,
2013-01-18 11:48:00,41.0,32.7,30.48,NE,45,10.4,10.4,72,0.04,RA,SKC,0.10,WeatherDisplay:10.37,2013-01-18 16:48:00,
2013-01-18 11:53:00,41.0,33.7,30.47,North,360,3.5,3.5,75,0.04,RA,SKC,0.10,WeatherDisplay:10.37,2013-01-18 16:53:00,
2013-01-18 11:58:00,42.0,34.0,30.47,WNW,292,4.6,4.6,73,0.03,CLR,SKC,0.10,WeatherDisplay:10.37,2013-01-18 16:58:00,
2013-01-18 12:03:00,42.0,33.3,30.46,NNW,337,3.5,3.7,71,0.03,CLR,SKC,0.10,WeatherDisplay:10.37,2013-01-18 17:03:00,
2013-01-18 12:08:00,42.0,31.8,30.46,NW,315,8.1,8.1,67,0.03,RA,SKC,0.11,WeatherDisplay:10.37,2013-01-18 17:08:00,
2013-01-18 12:13:00,42.0,32.2,30.46,West,270,9.0,9.0,68,0.04,RA,SKC,0.12,WeatherDisplay:10.37,2013-01-18 17:13:00,
2013-01-18 12:18:00,41.0,30.5,30.46,West,270,8.1,8.1,66,0.04,RA,SKC,0.12,WeatherDisplay:10.37,2013-01-18 17:18:00,
2013-01-18 12:23:00,41.0,30.9,30.46,West,270,6.9,6.9,67,0.04,,SKC,0.12,WeatherDisplay:10.37,2013-01-18 17:23:00,
2013-01-18 12:28:00,42.0,32.2,30.46,WSW,247,6.9,6.9,68,0.05,RA,SKC,0.13,WeatherDisplay:10.37,2013-01-18 17:28:00,
2013-01-18 12:33:00,42.0,31.5,30.46,WNW,292,5.8,5.8,66,0.04,RA,SKC,0.14,WeatherDisplay:10.37,2013-01-18 17:33:00,
2013-01-18 12:38:00,43.0,33.5,30.46,West,270,5.8,5.8,69,0.05,RA,SKC,0.14,WeatherDisplay:10.37,2013-01-18 17:38:00,
2013-01-18 12:43:00,43.0,32.8,30.46,West,270,7.0,7.0,67,0.05,RA,SKC,0.14,WeatherDisplay:10.37,2013-01-18 17:43:00,
2013-01-18 12:48:00,42.0,31.1,30.46,WNW,292,6.9,6.9,65,0.05,RA,SKC,0.15,WeatherDisplay:10.37,2013-01-18 17:48:00,
2013-01-18 12:53:00,43.0,32.4,30.46,North,360,6.9,6.9,66,0.06,RA,SKC,0.16,WeatherDisplay:10.37,2013-01-18 17:53:00,
2013-01-18 12:58:00,43.0,31.6,30.46,WNW,292,6.9,6.9,64,0.06,RA,SKC,0.16,WeatherDisplay:10.37,2013-01-18 17:58:00,
2013-01-18 13:03:00,43.0,31.6,30.45,WNW,292,5.8,5.8,64,0.07,RA,SKC,0.17,WeatherDisplay:10.37,2013-01-18 18:03:00,
2013-01-18 13:08:00,43.0,32.4,30.45,NNE,22,5.8,5.8,66,0.07,RA,SKC,0.18,WeatherDisplay:10.37,2013-01-18 18:08:00,
2013-01-18 13:13:00,43.0,31.3,30.46,West,270,5.8,5.8,63,0.07,RA,SKC,0.19,WeatherDisplay:10.37,2013-01-18 18:13:00,
2013-01-18 13:18:00,44.0,33.7,30.46,NW,315,4.0,4.0,67,0.08,RA,SKC,0.20,WeatherDisplay:10.37,2013-01-18 18:18:00,
2013-01-18 13:23:00,44.0,31.0,30.46,NNE,22,5.8,5.8,60,0.08,RA,SKC,0.20,WeatherDisplay:10.37,2013-01-18 18:23:00,
2013-01-18 13:28:00,44.0,29.7,30.46,North,360,10.4,10.4,57,0.08,RA,SKC,0.21,WeatherDisplay:10.37,2013-01-18 18:28:00,
2013-01-18 13:33:00,43.0,29.2,30.45,West,270,7.0,7.0,58,0.09,RA,SKC,0.22,WeatherDisplay:10.37,2013-01-18 18:33:00,
2013-01-18 13:38:00,43.0,27.5,30.45,NNE,22,6.0,6.0,54,0.09,RA,SKC,0.23,WeatherDisplay:10.37,2013-01-18 18:38:00,
2013-01-18 13:43:00,44.0,29.7,30.46,West,270,5.8,5.8,57,0.10,RA,SKC,0.24,WeatherDisplay:10.37,2013-01-18 18:43:00,
2013-01-18 13:48:00,44.0,29.7,30.46,West,270,6.0,6.0,57,0.09,RA,SKC,0.24,WeatherDisplay:10.37,2013-01-18 18:48:00,
2013-01-18 13:53:00,44.0,28.9,30.45,NNW,337,5.8,5.8,55,0.09,RA,SKC,0.25,WeatherDisplay:10.37,2013-01-18 18:53:00,
2013-01-18 13:58:00,44.0,29.7,30.45,ENE,67,4.6,4.6,57,0.10,RA,SKC,0.26,WeatherDisplay:10.37,2013-01-18 18:58:00,
2013-01-18 14:03:00,44.0,30.2,30.46,North,360,4.6,4.6,58,0.10,RA,SKC,0.27,WeatherDisplay:10.37,2013-01-18 19:03:00,
2013-01-18 14:08:00,44.0,29.7,30.46,NNE,22,5.8,5.8,57,0.10,RA,SKC,0.28,WeatherDisplay:10.37,2013-01-18 19:08:00,
2013-01-18 14:13:00,44.0,28.9,30.46,West,270,7.0,7.0,55,0.10,RA,SKC,0.29,WeatherDisplay:10.37,2013-01-18 19:13:00,
2013-01-18 14:18:00,44.0,28.4,30.46,West,270,4.6,4.6,54,0.10,RA,SKC,0.30,WeatherDisplay:10.37,2013-01-18 19:18:00,
2013-01-18 14:23:00,44.0,27.5,30.46,North,360,8.0,8.0,52,0.10,RA,SKC,0.30,WeatherDisplay:10.37,2013-01-18 19:23:00,
2013-01-18 14:28:00,44.0,27.5,30.46,ENE,67,3.5,3.5,52,0.10,RA,SKC,0.31,WeatherDisplay:10.37,2013-01-18 19:28:00,
2013-01-18 14:33:00,44.0,29.3,30.46,West,270,5.8,5.8,56,0.10,RA,SKC,0.32,WeatherDisplay:10.37,2013-01-18 19:33:00,
2013-01-18 14:38:00,44.0,29.3,30.46,West,270,6.9,6.9,56,0.10,RA,SKC,0.33,WeatherDisplay:10.37,2013-01-18 19:38:00,
2013-01-18 14:43:00,44.0,29.7,30.46,West,270,4.6,4.6,57,0.10,RA,SKC,0.34,WeatherDisplay:10.37,2013-01-18 19:43:00,
2013-01-18 14:48:00,44.0,29.7,30.46,North,360,4.6,4.6,57,0.10,RA,SKC,0.34,WeatherDisplay:10.37,2013-01-18 19:48:00,
2013-01-18 14:53:00,44.0,28.0,30.46,NW,315,4.6,4.6,53,0.10,RA,SKC,0.35,WeatherDisplay:10.37,2013-01-18 19:53:00,
2013-01-18 14:58:00,44.0,28.4,30.46,NNW,337,2.3,2.3,54,0.10,RA,SKC,0.36,WeatherDisplay:10.37,2013-01-18 19:58:00,
2013-01-18 15:03:00,44.0,28.0,30.46,West,270,8.1,8.1,53,0.10,RA,SKC,0.37,WeatherDisplay:10.37,2013-01-18 20:03:00,
2013-01-18 15:08:00,44.0,28.9,30.46,North,360,8.1,8.1,55,0.10,RA,SKC,0.38,WeatherDisplay:10.37,2013-01-18 20:08:00,
2013-01-18 15:13:00,43.0,26.1,30.46,NNE,22,9.2,9.2,51,0.09,RA,SKC,0.38,WeatherDisplay:10.37,2013-01-18 20:13:00,
2013-01-18 15:18:00,43.0,26.6,30.46,NE,45,7.0,7.0,52,0.09,RA,SKC,0.39,WeatherDisplay:10.37,2013-01-18 20:18:00,
2013-01-18 15:23:00,43.0,25.6,30.48,NE,45,6.9,6.9,50,0.10,RA,SKC,0.40,WeatherDisplay:10.37,2013-01-18 20:23:00,
2013-01-18 15:28:00,43.0,26.1,30.48,NE,45,9.2,9.2,51,0.09,RA,SKC,0.41,WeatherDisplay:10.37,2013-01-18 20:28:00,
2013-01-18 15:33:00,43.0,25.6,30.48,NNE,22,6.9,6.9,50,0.09,RA,SKC,0.41,WeatherDisplay:10.37,2013-01-18 20:33:00,
2013-01-18 15:38:00,43.0,27.0,30.48,WNW,292,4.6,4.6,53,0.09,RA,SKC,0.42,WeatherDisplay:10.37,2013-01-18 20:38:00,
2013-01-18 15:43:00,43.0,27.0,30.48,North,360,5.8,5.8,53,0.08,RA,SKC,0.42,WeatherDisplay:10.37,2013-01-18 20:43:00,
2013-01-18 15:48:00,42.0,24.2,30.48,North,360,10.4,10.4,49,0.09,RA,SKC,0.43,WeatherDisplay:10.37,2013-01-18 20:48:00,
2013-01-18 15:53:00,43.0,26.6,30.49,NE,45,5.8,5.8,52,0.09,RA,SKC,0.44,WeatherDisplay:10.37,2013-01-18 20:53:00,
2013-01-18 15:58:00,43.0,26.6,30.49,NNE,22,6.9,6.9,52,0.08,RA,SKC,0.44,WeatherDisplay:10.37,2013-01-18 20:58:00,
2013-01-18 16:03:00,43.0,27.0,30.49,NNE,22,6.9,6.9,53,0.07,,SKC,0.44,WeatherDisplay:10.37,2013-01-18 21:03:00,
2013-01-18 16:08:00,43.0,27.5,30.49,ENE,67,6.9,6.9,54,0.07,RA,SKC,0.45,WeatherDisplay:10.37,2013-01-18 21:08:00,
2013-01-18 16:13:00,42.0,27.0,30.49,NNE,22,5.0,5.0,55,0.07,RA,SKC,0.45,WeatherDisplay:10.37,2013-01-18 21:13:00,
2013-01-18 16:18:00,42.0,27.0,30.49,NNE,22,4.6,4.6,55,0.06,,SKC,0.46,WeatherDisplay:10.37,2013-01-18 21:18:00,
2013-01-18 16:23:00,42.0,27.4,30.50,WNW,292,3.5,3.5,56,0.06,RA,SKC,0.46,WeatherDisplay:10.37,2013-01-18 21:23:00,
2013-01-18 16:28:00,42.0,27.4,30.50,NW,315,3.5,3.5,56,0.06,RA,SKC,0.46,WeatherDisplay:10.37,2013-01-18 21:28:00,
2013-01-18 16:33:00,41.0,26.9,30.51,West,270,3.5,3.5,57,0.05,CLR,SKC,0.46,WeatherDisplay:10.37,2013-01-18 21:33:00,
2013-01-18 16:38:00,41.0,27.8,30.51,NNE,22,8.0,8.0,59,0.04,CLR,SKC,0.46,WeatherDisplay:10.37,2013-01-18 21:38:00,
2013-01-18 16:43:00,41.0,26.5,30.51,North,360,4.6,4.6,56,0.05,RA,SKC,0.47,WeatherDisplay:10.37,2013-01-18 21:43:00,
2013-01-18 16:48:00,41.0,27.3,30.51,WNW,292,3.5,3.5,58,0.04,RA,SKC,0.47,WeatherDisplay:10.37,2013-01-18 21:48:00,
2013-01-18 16:53:00,41.0,27.3,30.52,WNW,292,3.5,3.5,58,0.03,,SKC,0.47,WeatherDisplay:10.37,2013-01-18 21:53:00,
2013-01-18 16:58:00,41.0,28.2,30.52,WNW,292,3.5,3.5,60,0.03,CLR,SKC,0.47,WeatherDisplay:10.37,2013-01-18 21:58:00,
2013-01-18 17:03:00,40.0,27.2,30.53,West,270,1.1,1.4,60,0.04,RA,SKC,0.48,WeatherDisplay:10.37,2013-01-18 22:03:00,
2013-01-18 17:08:00,40.0,27.2,30.53,West,270,2.3,2.3,60,0.03,RA,SKC,0.48,WeatherDisplay:10.37,2013-01-18 22:08:00,
2013-01-18 17:13:00,40.0,28.4,30.54,West,270,0.0,0.0,63,0.03,,SKC,0.48,WeatherDisplay:10.37,2013-01-18 22:13:00,
2013-01-18 17:18:00,39.0,26.7,30.54,West,270,3.5,3.5,61,0.03,CLR,SKC,0.48,WeatherDisplay:10.37,2013-01-18 22:18:00,
2013-01-18 17:23:00,39.0,27.5,30.55,West,270,1.1,1.1,63,0.02,CLR,SKC,0.48,WeatherDisplay:10.37,2013-01-18 22:23:00,
2013-01-18 17:28:00,39.0,27.5,30.55,West,270,1.0,1.0,63,0.02,CLR,SKC,0.48,WeatherDisplay:10.37,2013-01-18 22:28:00,
2013-01-18 17:33:00,38.0,26.9,30.56,West,270,3.5,3.5,64,0.02,CLR,SKC,0.48,WeatherDisplay:10.37,2013-01-18 22:33:00,
2013-01-18 17:38:00,38.0,26.9,30.56,West,270,0.0,0.0,64,0.02,CLR,SKC,0.48,WeatherDisplay:10.37,2013-01-18 22:38:00,
2013-01-18 17:43:00,37.0,27.1,30.56,West,270,0.0,0.0,67,0.01,CLR,SKC,0.48,WeatherDisplay:10.37,2013-01-18 22:43:00,
2013-01-18 17:48:00,37.0,27.1,30.56,West,270,3.5,3.5,67,0.01,CLR,SKC,0.48,WeatherDisplay:10.37,2013-01-18 22:48:00,
2013-01-18 17:53:00,37.0,28.8,30.57,West,270,0.0,0.0,72,0.01,CLR,SKC,0.48,WeatherDisplay:10.37,2013-01-18 22:53:00,
2013-01-18 17:58:00,36.0,27.8,30.57,West,270,3.5,3.5,72,0.01,CLR,SKC,0.48,WeatherDisplay:10.37,2013-01-18 22:58:00,
2013-01-18 18:03:00,36.0,29.2,30.57,West,270,1.1,0.0,76,0.01,RA,SKC,0.49,WeatherDisplay:10.37,2013-01-18 23:03:00,
2013-01-18 18:08:00,36.0,29.2,30.57,West,270,3.5,3.5,76,0.01,RA,SKC,0.49,WeatherDisplay:10.37,2013-01-18 23:08:00,
2013-01-18 18:13:00,35.0,28.5,30.58,West,270,2.3,2.3,77,0.01,CLR,SKC,0.49,WeatherDisplay:10.37,2013-01-18 23:13:00,
2013-01-18 18:18:00,35.0,29.8,30.58,SSW,202,3.5,3.5,81,0.01,CLR,SKC,0.49,WeatherDisplay:10.37,2013-01-18 23:18:00,
2013-01-18 18:23:00,34.0,28.8,30.59,SSW,202,1.0,1.0,81,0.01,CLR,SKC,0.49,WeatherDisplay:10.37,2013-01-18 23:23:00,
2013-01-18 18:28:00,34.0,28.5,30.59,SSW,202,0.0,0.0,80,0.01,CLR,SKC,0.49,WeatherDisplay:10.37,2013-01-18 23:28:00,
2013-01-18 18:33:00,33.0,29.3,30.60,SSW,202,2.3,2.3,86,0.01,CLR,SKC,0.49,WeatherDisplay:10.37,2013-01-18 23:33:00,
2013-01-18 18:38:00,33.0,28.1,30.60,SSW,202,0.0,0.0,82,0.01,CLR,SKC,0.49,WeatherDisplay:10.37,2013-01-18 23:38:00,
2013-01-18 18:43:00,33.0,28.7,30.60,SSW,202,0.0,0.0,84,0.01,CLR,SKC,0.49,WeatherDisplay:10.37,2013-01-18 23:43:00,
2013-01-18 18:48:00,32.0,27.7,30.60,SSW,202,0.0,0.0,84,0.01,CLR,SKC,0.49,WeatherDisplay:10.37,2013-01-18 23:48:00,
2013-01-18 18:53:00,32.0,28.8,30.60,SSW,202,0.0,0.0,88,0.01,CLR,SKC,0.49,WeatherDisplay:10.37,2013-01-18 23:53:00,
2013-01-18 18:58:00,32.0,28.6,30.60,SSW,202,0.0,0.0,87,0.01,CLR,SKC,0.49,WeatherDisplay:10.37,2013-01-18 23:58:00,
2013-01-18 19:03:00,32.0,28.8,30.61,SSW,202,0.0,0.0,88,0.00,CLR,SKC,0.49,WeatherDisplay:10.37,2013-01-19 00:03:00,
2013-01-18 19:08:00,32.0,31.0,30.61,SSW,202,2.3,2.3,96,0.00,CLR,SKC,0.49,WeatherDisplay:10.37,2013-01-19 00:08:00,
2013-01-18 19:13:00,32.0,29.7,30.61,SSW,202,0.0,0.0,91,0.00,CLR,SKC,0.49,WeatherDisplay:10.37,2013-01-19 00:13:00,
2013-01-18 19:18:00,32.0,31.8,30.61,South,180,3.5,3.5,99,0.00,CLR,SKC,0.49,WeatherDisplay:10.37,2013-01-19 00:18:00,
2013-01-18 19:23:00,32.0,30.5,30.62,SSW,202,0.0,0.0,94,0.00,CLR,SKC,0.49,WeatherDisplay:10.37,2013-01-19 00:23:00,
2013-01-18 19:28:00,31.0,31.0,30.62,SSE,157,3.5,3.5,100,0.00,CLR,SKC,0.49,WeatherDisplay:10.37,2013-01-19 00:28:00,
2013-01-18 19:33:00,31.0,30.0,30.62,SSE,157,3.5,3.5,96,0.00,CLR,SKC,0.49,WeatherDisplay:10.37,2013-01-19 00:33:00,
2013-01-18 19:38:00,31.0,30.8,30.62,SSE,157,3.5,3.5,99,0.00,CLR,SKC,0.49,WeatherDisplay:10.37,2013-01-19 00:38:00,
2013-01-18 19:43:00,31.0,30.0,30.62,SSE,157,2.0,2.0,96,0.00,CLR,SKC,0.49,WeatherDisplay:10.37,2013-01-19 00:43:00,
2013-01-18 19:48:00,31.0,31.0,30.62,SSE,157,4.0,4.0,100,0.00,CLR,SKC,0.49,WeatherDisplay:10.37,2013-01-19 00:48:00,
2013-01-18 19:53:00,31.0,30.2,30.62,SSE,157,0.0,0.0,97,0.00,CLR,SKC,0.49,WeatherDisplay:10.37,2013-01-19 00:53:00,
2013-01-18 19:58:00,31.0,31.0,30.62,SSE,157,3.5,3.5,100,0.00,,SKC,0.49,WeatherDisplay:10.37,2013-01-19 00:58:00,
2013-01-18 20:03:00,30.0,30.0,30.62,SSE,157,0.0,0.0,100,0.00,,SKC,0.49,WeatherDisplay:10.37,2013-01-19 01:03:00,
2013-01-18 20:08:00,30.0,30.0,30.62,SSE,157,0.0,0.0,100,0.00,CLR,SKC,0.49,WeatherDisplay:10.37,2013-01-19 01:08:00,
2013-01-18 20:13:00,30.0,30.0,30.62,SSE,157,0.0,0.0,100,0.00,,SKC,0.49,WeatherDisplay:10.37,2013-01-19 01:13:00,
2013-01-18 20:18:00,30.0,30.0,30.62,SSE,157,3.0,3.0,100,0.00,,SKC,0.49,WeatherDisplay:10.37,2013-01-19 01:18:00,
2013-01-18 20:23:00,29.0,29.0,30.62,SSE,157,0.0,0.0,100,0.00,,SKC,0.49,WeatherDisplay:10.37,2013-01-19 01:23:00,
2013-01-18 20:28:00,30.0,30.0,30.62,SSE,157,0.0,0.0,100,0.00,,SKC,0.49,WeatherDisplay:10.37,2013-01-19 01:28:00,
2013-01-18 20:33:00,29.0,29.0,30.62,SSE,157,3.5,0.0,100,0.00,,SKC,0.49,WeatherDisplay:10.37,2013-01-19 01:33:00,
2013-01-18 20:38:00,30.0,30.0,30.63,SSE,157,3.0,3.0,100,0.00,,SKC,0.49,WeatherDisplay:10.37,2013-01-19 01:38:00,
2013-01-18 20:43:00,29.0,29.0,30.63,SSE,157,0.0,0.0,100,0.00,,SKC,0.49,WeatherDisplay:10.37,2013-01-19 01:43:00,
2013-01-18 20:48:00,29.0,29.0,30.64,SSE,157,3.0,3.0,100,0.00,,SKC,0.49,WeatherDisplay:10.37,2013-01-19 01:48:00,
2013-01-18 20:53:00,29.0,29.0,30.64,SSE,157,0.0,0.0,100,0.00,,SKC,0.49,WeatherDisplay:10.37,2013-01-19 01:53:00,
2013-01-18 20:58:00,29.0,29.0,30.63,SSE,157,2.3,0.0,100,0.00,,SKC,0.49,WeatherDisplay:10.37,2013-01-19 01:58:00,
2013-01-18 21:03:00,28.0,28.0,30.63,SSE,157,0.0,0.0,100,0.00,,SKC,0.49,WeatherDisplay:10.37,2013-01-19 02:03:00,
2013-01-18 21:08:00,28.0,28.0,30.63,SSE,157,0.0,0.0,100,0.00,,SKC,0.49,WeatherDisplay:10.37,2013-01-19 02:08:00,
2013-01-18 21:13:00,28.0,28.0,30.63,SSE,157,0.0,0.0,100,0.00,,SKC,0.49,WeatherDisplay:10.37,2013-01-19 02:13:00,
2013-01-18 21:18:00,28.0,28.0,30.63,SSE,157,0.0,0.0,100,0.00,,SKC,0.49,WeatherDisplay:10.37,2013-01-19 02:18:00,
2013-01-18 21:23:00,28.0,28.0,30.63,SSE,157,0.0,0.0,100,0.00,,SKC,0.49,WeatherDisplay:10.37,2013-01-19 02:23:00,
2013-01-18 21:28:00,28.0,28.0,30.63,SSE,157,0.0,0.0,100,0.00,,SKC,0.49,WeatherDisplay:10.37,2013-01-19 02:28:00,
2013-01-18 21:33:00,27.0,27.0,30.63,SSE,157,2.3,2.3,100,0.00,,SKC,0.49,WeatherDisplay:10.37,2013-01-19 02:33:00,
2013-01-18 21:38:00,27.0,27.0,30.63,SSE,157,0.0,0.0,100,0.00,,SKC,0.49,WeatherDisplay:10.37,2013-01-19 02:38:00,
2013-01-18 21:43:00,27.0,27.0,30.63,SSE,157,0.0,0.0,100,0.00,,SKC,0.49,WeatherDisplay:10.37,2013-01-19 02:43:00,
2013-01-18 21:48:00,27.0,27.0,30.63,SSE,157,2.3,2.3,100,0.00,,SKC,0.49,WeatherDisplay:10.37,2013-01-19 02:48:00,
2013-01-18 21:53:00,27.0,27.0,30.63,SSE,157,1.1,0.0,100,0.00,,SKC,0.49,WeatherDisplay:10.37,2013-01-19 02:53:00,
2013-01-18 21:58:00,27.0,27.0,30.63,SSE,157,0.0,0.0,100,0.00,,SKC,0.49,WeatherDisplay:10.37,2013-01-19 02:58:00,
2013-01-18 22:03:00,27.0,27.0,30.63,SSE,157,1.1,1.1,100,0.00,,SKC,0.49,WeatherDisplay:10.37,2013-01-19 03:03:00,
2013-01-18 22:08:00,27.0,27.0,30.62,SSE,157,0.0,0.0,100,0.00,,SKC,0.49,WeatherDisplay:10.37,2013-01-19 03:08:00,
2013-01-18 22:13:00,27.0,27.0,30.62,SSE,157,3.5,3.5,100,0.00,,SKC,0.49,WeatherDisplay:10.37,2013-01-19 03:13:00,
2013-01-18 22:18:00,27.0,27.0,30.62,SSE,157,0.0,0.0,100,0.00,,SKC,0.49,WeatherDisplay:10.37,2013-01-19 03:18:00,
2013-01-18 22:23:00,27.0,27.0,30.62,SSE,157,0.0,0.0,100,0.00,,SKC,0.49,WeatherDisplay:10.37,2013-01-19 03:23:00,
2013-01-18 22:28:00,27.0,27.0,30.63,SSE,157,0.0,0.0,100,0.00,,SKC,0.49,WeatherDisplay:10.37,2013-01-19 03:28:00,
2013-01-18 22:33:00,27.0,27.0,30.63,SSE,157,0.0,0.0,100,0.00,,SKC,0.49,WeatherDisplay:10.37,2013-01-19 03:33:00,
2013-01-18 22:38:00,27.0,27.0,30.62,SSE,157,0.0,0.0,100,0.00,,SKC,0.49,WeatherDisplay:10.37,2013-01-19 03:38:00,
2013-01-18 22:44:00,27.0,27.0,30.62,SSE,157,0.0,0.0,100,0.00,,SKC,0.49,WeatherDisplay:10.37,2013-01-19 03:44:00,
2013-01-18 22:49:00,27.0,27.0,30.62,SSE,157,0.0,0.0,100,0.00,,SKC,0.49,WeatherDisplay:10.37,2013-01-19 03:49:00,
2013-01-18 22:54:00,27.0,27.0,30.62,SSE,157,0.0,0.0,100,0.00,,SKC,0.49,WeatherDisplay:10.37,2013-01-19 03:54:00,
2013-01-18 22:59:00,27.0,27.0,30.62,SSE,157,0.0,0.0,100,0.00,,SKC,0.49,WeatherDisplay:10.37,2013-01-19 03:59:00,
2013-01-18 23:04:00,27.0,27.0,30.62,SSE,157,0.0,0.0,100,0.00,,SKC,0.49,WeatherDisplay:10.37,2013-01-19 04:04:00,
2013-01-18 23:09:00,27.0,27.0,30.62,SSE,157,0.0,0.0,100,0.00,,SKC,0.49,WeatherDisplay:10.37,2013-01-19 04:09:00,
2013-01-18 23:14:00,26.0,26.0,30.62,SSE,157,0.0,0.0,100,0.00,,SKC,0.49,WeatherDisplay:10.37,2013-01-19 04:14:00,
2013-01-18 23:19:00,26.0,26.0,30.61,SSE,157,0.0,0.0,100,0.00,,SKC,0.49,WeatherDisplay:10.37,2013-01-19 04:19:00,
2013-01-18 23:24:00,26.0,26.0,30.61,SSE,157,0.0,0.0,100,0.00,,SKC,0.49,WeatherDisplay:10.37,2013-01-19 04:24:00,
2013-01-18 23:29:00,26.0,26.0,30.62,SSE,157,0.0,0.0,100,0.00,,SKC,0.49,WeatherDisplay:10.37,2013-01-19 04:29:00,
2013-01-18 23:34:00,26.0,26.0,30.62,SSE,157,2.3,2.5,100,0.00,,SKC,0.49,WeatherDisplay:10.37,2013-01-19 04:34:00,
2013-01-18 23:39:00,26.0,26.0,30.62,SSE,157,0.0,0.0,100,0.00,,SKC,0.49,WeatherDisplay:10.37,2013-01-19 04:39:00,
2013-01-18 23:44:00,26.0,26.0,30.62,SSE,157,3.5,3.5,100,0.00,,SKC,0.49,WeatherDisplay:10.37,2013-01-19 04:44:00,
2013-01-18 23:49:00,26.0,26.0,30.62,SSE,157,0.0,0.0,100,0.00,,SKC,0.49,WeatherDisplay:10.37,2013-01-19 04:49:00,
2013-01-18 23:54:00,26.0,26.0,30.62,SSE,157,0.0,0.0,100,0.00,,SKC,0.49,WeatherDisplay:10.37,2013-01-19 04:54:00,
2013-01-18 23:59:00,26.0,26.0,30.61,SSE,157,0.0,0.0,100,0.00,,SKC,0.49,WeatherDisplay:10.37,2013-01-19 04:59:00,